Regional Weather Roundup
Issued by NWS Sterling, VA

Home | Current Version | Previous Version | Text Only | Print | Product List | Glossary Off
Versions: 1 2 3 4 5 6 7 8 9 10 11 12 13 14 15 16 17 18 19 20 21 22 23 24 25 26 27 28 29 30 31 32 33 34 35 36 37 38 39 40 41 42 43 44 45 46 47 48 49 50

000
ASUS41 KLWX 211610
RWRLWX

REGIONAL WEATHER ROUNDUP
NATIONAL WEATHER SERVICE BALTIMORE MD/WASHINGTON DC
1100 AM EST SUN DEC 21 2014

Note: "FAIR" indicates few or no clouds below 12,000 feet
with no significant weather and/or obstructions to visibility.
 TC=TEMPERATURE CELSIUS

 * =Non NWS site. Station does not report precipitation (e.g. rain,
    snow, etc.), thunder, or fog.

DCZ001-MDZ009-015-VAZ040>042-051-053>054-211700-
WASHINGTON METRO

CITY           SKY/WX    TMP DP  RH WIND       PRES   REMARKS
WASHINGTON NAT CLOUDY    39  23  52 E3        30.37F
DULLES         CLOUDY    35  23  61 N5        30.36S
ANDREWS AFB    CLOUDY    36  22  58 CALM      30.35F
FT BELVOIR     CLOUDY    38  23  55 N3        30.37F
QUANTICO       CLOUDY    39  24  55 E6        30.39S
COLLEGE PARK*  CLOUDY    36  27  69 CALM      30.36F
LEESBURG*      CLOUDY    36  27  69 MISG      30.36F
MANASSAS*      CLOUDY    37  25  60 N3        30.37S
GAITHERSBURG*  CLOUDY    34  21  60 N3        30.38S

$$

MDZ006>007-011-014-211700-
BALTIMORE METRO

CITY           SKY/WX    TMP DP  RH WIND       PRES   REMARKS
BWI AIRPORT    PTSUNNY   35  22  58 CALM      30.35F
MD SCIENCE CTR   N/A     36  22  56 MISG      30.37S
MARTIN STATE   MOSUNNY   37  27  65 NW6       30.37F
ANNAPOLIS        N/A     37  24  59 N6        30.36F
FORT MEADE*    CLOUDY    36  25  64 W3        30.38F

$$

MDZ012-015-019>023-211700-
MARYLAND EASTERN SHORE

CITY           SKY/WX    TMP DP  RH WIND       PRES   REMARKS
OCEAN CITY     CLOUDY    37  24  59 N9        30.35S
SALISBURY      CLOUDY    39  25  57 N3        30.35S
BAY BRIDGE AP*   N/A     36  25  64 N7        30.36F
CAMBRIDGE*     MOSUNNY   37  27  65 NW6       30.35F
EASTON*        CLOUDY    37  28  70 NE5       30.39F

$$

MDZ017>025-211700-
SOUTHERN MARYLAND

CITY           SKY/WX    TMP DP  RH WIND       PRES   REMARKS
PATUXENT RIVER CLOUDY    38  27  64 CALM      30.36S
ST INIGOES     CLOUDY    40  27  59 VRB5      30.36S
LEONARDTOWN*   CLOUDY    37  28  70 CALM      30.37F

$$

MDZ003>005-211700-
NORTH CENTRAL MARYLAND

CITY           SKY/WX    TMP DP  RH WIND       PRES   REMARKS
FREDERICK*     CLOUDY    36  21  55 CALM      30.39S
HAGERSTOWN APT CLOUDY    34  22  61 N3        30.34R
WESTMINSTER*   SUNNY     34  21  60 NW5       30.32F

$$

MDZ501>502-211700-
WESTERN MARYLAND

CITY           SKY/WX    TMP DP  RH WIND       PRES   REMARKS
OAKLAND*       CLOUDY    30 N/A N/A CALM      30.21S
CUMBERLAND*    MOSUNNY   36  27  69 CALM      30.36F

$$

VAZ025>031-211700-
SHENANDOAH VALLEY

CITY           SKY/WX    TMP DP  RH WIND       PRES   REMARKS
WINCHESTER*    CLOUDY    36  21  55 CALM      30.33F
FRONT ROYAL*   CLOUDY    34  25  69 CALM      30.33S
LURAY*         CLOUDY    37  28  70 CALM      30.32F
NEW MARKET*    CLOUDY    36  26  67 CALM      30.31F
STAUNTON*      PTSUNNY   36  26  67 CALM      30.32S
WAYNESBORO*    CLOUDY    34  26  72 CALM      30.29F

$$

WVZ021-048>050-054>055-211700-
EASTERN WEST VIRGINIA PANHANDLE

CITY           SKY/WX    TMP DP  RH WIND       PRES   REMARKS
MARTINSBURG    CLOUDY    35  22  58 CALM      30.35S
PETERSBURG*    CLOUDY    36  23  59 CALM      30.32F

$$

VAZ036>039-050-211700-
CENTRAL FOOTHILLS

CITY           SKY/WX    TMP DP  RH WIND       PRES   REMARKS
CHARLOTTESVILL CLOUDY    37  25  61 NE5       30.34R
CULPEPER*      CLOUDY    37  27  65 CALM      30.36F
ORANGE*        CLOUDY    37  28  70 N3        30.36S
GORDONSVILLE*  CLOUDY    36  25  66 NE5       30.35S
WARRENTON*     CLOUDY    38  31  76 CALM      30.36S

$$

VAZ055>057-211700-
NORTH AND CENTRAL PIEDMONT

CITY           SKY/WX    TMP DP  RH WIND       PRES   REMARKS
FREDERICKSBRG* CLOUDY    39  26  60 CALM      30.36S
STAFFORD*      CLOUDY    37  24  57 CALM      30.41S

$$

NCZ024-NYZ072-PAZ021-071-VAZ022-071-211700-
OTHER REGIONAL OBSERVATIONS

CITY           SKY/WX    TMP DP  RH WIND       PRES   REMARKS
NEW YORK CITY  CLOUDY    32  24  72 NW7       30.33F
PHILADELPHIA   MOSUNNY   37  21  52 NW8       30.35F
PITTSBURGH     CLOUDY    30  20  66 CALM      30.32R
ROANOKE        CLOUDY    40  29  64 SE3       30.31S
RICHMOND       CLOUDY    41  24  51 N3        30.36S
RALEIGH        CLOUDY    42  34  73 E6        30.33S

$$

ANZ530>537-211700-
MARINE OBSERVATIONS

STATION/POSITION TIME  TEMP    WIND        PRES
                       AIR SEA DIR/SP/G
                 (UTC) (F)     (DEG/KT/KT) (MB)
THOMAS PT LIGHT  1600   35 40  360/  7/  8 1029.0F
BALT KEY BRIDGE  1600   35     300/  3/  4 1028.1F
COVE POINT       1600   36      20/  2/  3 1028.0S
LEWISETTA        1600   38 41   50/  2/  3 1027.8F
SOLOMONS ISLAND  1600      42                N/A

$$




USA.gov is the U.S. government's official web portal to all federal, state and local government web resources and services.